Regional Weather Roundup
Issued by NWS

Home | Current Version | Previous Version | Text Only | Print | Product List | Glossary Off
Versions: 1 2 3 4 5 6 7 8 9 10 11 12 13 14 15 16 17 18 19 20 21 22 23 24 25 26 27 28 29 30 31 32 33 34 35 36 37 38 39 40 41 42 43 44 45 46 47 48 49 50

000
ASUS43 KOAX 122302
RWRNE

WEATHER ROUNDUP FOR NEBRASKA
NATIONAL WEATHER SERVICE OMAHA NE
600 PM CDT SAT JUL 12 2014

NOTES: SATELLITE DATA IS BEING USED TO AUGMENT CLOUD COVER ABOVE
       12000 FEET.
       "FAIR" INDICATES FEW OR NO CLOUDS BELOW 12,000 FEET WITH NO
       SIGNIFICANT WEATHER AND/OR OBSTRUCTIONS TO VISIBILITY.

  * THESE STATIONS DO NOT REPORT WEATHER SUCH AS RAIN...SNOW OR FOG.

NEZ001>004-019>022-054>056-130000-
NEBRASKA PANHANDLE

CITY           SKY/WX    TMP DP  RH WIND       PRES   REMARKS
SCOTTSBLUFF    MOSUNNY   81  63  54 S7        30.19F
ALLIANCE       SUNNY     81  59  47 VRB7      30.18F
CHADRON        SUNNY     86  57  37 W6        30.13S
KIMBALL        MOSUNNY   78  57  47 NE12      30.23S
SIDNEY         SUNNY     81  59  47 NE8       30.21F
$$

NEZ057>060-069>072-079>082-130000-
SOUTHWEST NEBRASKA

CITY           SKY/WX    TMP DP  RH WIND       PRES   REMARKS
NORTH PLATTE   CLOUDY    81  63  54 NE10      30.09S
IMPERIAL       MOSUNNY   85  63  47 N16       30.12S
LEXINGTON      MOSUNNY   81  69  67 NE8       30.07F
MCCOOK         MOSUNNY   84  69  60 NE15      30.07S
OGALLALA       MOSUNNY   82  61  48 N9        30.13S
$$

NEZ005>010-023>029-035>040-094-130000-
NORTH CENTRAL NEBRASKA

CITY           SKY/WX    TMP DP  RH WIND       PRES   REMARKS
VALENTINE      MOSUNNY   82  63  52 N9        30.11R
AINSWORTH      MOSUNNY   81  64  56 NW8       30.09F
BROKEN BOW     MOSUNNY   81  67  62 E7        30.08S
O`NEILL        SUNNY     80  63  55 NE6       30.07S
ORD            MOSUNNY   79  67  66 CALM      30.04F
$$

NEZ041-046>049-061>064-073>077-083>087-130000-
SOUTH CENTRAL NEBRASKA

CITY           SKY/WX    TMP DP  RH WIND       PRES   REMARKS
GRAND ISLAND   MOSUNNY   78  68  71 N12       30.04F
AURORA         MOSUNNY   80  71  73 NE8       30.02F
HASTINGS       PTSUNNY   80  68  66 N13       30.03S
HEBRON         MOSUNNY   91  73  54 N13       29.96S HX  99
HOLDREGE       MOSUNNY   77  67  69 NE12      30.06S
KEARNEY *      MOSUNNY   77  66  69 NE12      30.06F
YORK           PTSUNNY   81  72  74 N15       30.02S
$$

NEZ011>018-030>034-042>045-130000-
NORTHEAST NEBRASKA

CITY           SKY/WX    TMP DP  RH WIND       PRES   REMARKS
NORFOLK        MOSUNNY   77  67  71 SE3       30.03F
ALBION         MOSUNNY   76  66  69 NE3       30.05S
BLAIR          PTSUNNY   79  68  70 N10       29.99F
TEKAMAH        PTSUNNY   78  69  73 N10       29.99F
WAYNE          MOSUNNY   78  67  67 N5        30.02F
$$

NEZ050>053-065>068-078-088>093-130000-
SOUTHEAST NEBRASKA

CITY           SKY/WX    TMP DP  RH WIND       PRES   REMARKS
LINCOLN        MOSUNNY   83  71  67 N17       29.98F
OMAHA EPPLEY   PTSUNNY   80  70  71 N15       29.97F
BEATRICE       SUNNY     88  74  63 N12       29.95S HX  96
FALLS CITY     MOSUNNY   95  69  42 S15       29.91F HX 100
NEBRASKA CITY  MOSUNNY   87  72  60 N7        29.94F HX  94
PLATTSMOUTH    PTSUNNY   84  71  65 N9        29.96F
$$

NEZ044-045-051>053-067-130000-
OMAHA AREA

CITY           SKY/WX    TMP DP  RH WIND       PRES   REMARKS
OMAHA EPPLEY   PTSUNNY   80  70  71 N15       29.97F
BLAIR          PTSUNNY   79  68  70 N10       29.99F
MILLARD        PTSUNNY   79  71  76 NW6       29.98S
PLATTSMOUTH    PTSUNNY   84  71  65 N9        29.96F
WAHOO          FAIR      79  69  71 N10       29.99F
$$


USA.gov is the U.S. government's official web portal to all federal, state and local government web resources and services.